THY6805 LTCI-LTFM

Flight info

Callsign THY6805
Flight time N/A
Altitude 36000
Route LTCI/21 N0466F360 BEYA1P BEYAZ UG81 BAYIR UT888 SIV UL615 TIMOP UT97 KANQO KANQ1A LTFM/35R
Aircraft A320/M-CDT/C

Departure

Time N/A
Airport Van Ferit Melen Airport (LTCI)

Arrival

Time 2026-02-22 05:45
Airport İstanbul Airport (LTFM)
Time Latitude Longitude Altitude Speed Heading
2026-02-22 04:00 38.60611 42.87031 18141 ft 408 kts 201°
2026-02-22 04:00 38.57947 42.85758 18862 ft 409 kts 204°
2026-02-22 04:01 38.55468 42.83975 19485 ft 410 kts 216°
2026-02-22 04:01 38.53331 42.81559 20063 ft 413 kts 228°
2026-02-22 04:01 38.51623 42.78599 20579 ft 416 kts 240°
2026-02-22 04:01 38.50423 42.75226 21023 ft 420 kts 252°
2026-02-22 04:02 38.49786 42.71571 21396 ft 425 kts 264°
2026-02-22 04:02 38.49755 42.67791 21774 ft 428 kts 275°
2026-02-22 04:02 38.50041 42.63944 22156 ft 431 kts 276°
2026-02-22 04:02 38.50352 42.60122 22530 ft 434 kts 276°
2026-02-22 04:03 38.50675 42.56285 22906 ft 436 kts 276°
2026-02-22 04:03 38.51000 42.52431 23285 ft 437 kts 276°
2026-02-22 04:03 38.51319 42.48561 23661 ft 439 kts 276°
2026-02-22 04:03 38.51632 42.44683 24036 ft 440 kts 276°
2026-02-22 04:04 38.51943 42.40788 24344 ft 442 kts 276°
2026-02-22 04:04 38.52254 42.36866 24597 ft 446 kts 276°
2026-02-22 04:04 38.52564 42.32910 24843 ft 449 kts 276°
2026-02-22 04:04 38.52873 42.28928 25097 ft 452 kts 275°
2026-02-22 04:05 38.53182 42.24922 25345 ft 455 kts 275°
2026-02-22 04:05 38.53495 42.20894 25597 ft 457 kts 276°
2026-02-22 04:05 38.53808 42.16855 25849 ft 458 kts 275°
2026-02-22 04:05 38.54121 42.12794 26100 ft 460 kts 275°
2026-02-22 04:06 38.54437 42.08717 26351 ft 462 kts 276°
2026-02-22 04:06 38.54754 42.04629 26602 ft 463 kts 275°
2026-02-22 04:06 38.55069 42.00525 26864 ft 465 kts 275°
2026-02-22 04:06 38.55382 41.96417 27102 ft 466 kts 275°
2026-02-22 04:07 38.55694 41.92290 27353 ft 467 kts 275°
2026-02-22 04:07 38.56004 41.88169 27602 ft 467 kts 275°
2026-02-22 04:07 38.56315 41.84027 27852 ft 468 kts 275°
2026-02-22 04:07 38.56622 41.79892 28103 ft 468 kts 275°
2026-02-22 04:08 38.56927 41.75749 28352 ft 469 kts 275°
2026-02-22 04:08 38.57230 41.71597 28602 ft 469 kts 275°
2026-02-22 04:08 38.57531 41.67454 28851 ft 468 kts 275°
2026-02-22 04:08 38.57833 41.63308 29102 ft 468 kts 275°
2026-02-22 04:09 38.58131 41.59171 29353 ft 468 kts 275°
2026-02-22 04:09 38.58428 41.55028 29601 ft 468 kts 275°
2026-02-22 04:09 38.58727 41.50890 29851 ft 467 kts 275°
2026-02-22 04:09 38.59024 41.46764 30099 ft 466 kts 275°
2026-02-22 04:10 38.59337 41.42640 30351 ft 466 kts 278°
2026-02-22 04:10 38.59996 41.38598 30597 ft 465 kts 287°
2026-02-22 04:10 38.61039 41.34685 30849 ft 465 kts 289°
2026-02-22 04:10 38.62130 41.30741 31106 ft 464 kts 289°
2026-02-22 04:11 38.63200 41.26860 31354 ft 464 kts 289°
2026-02-22 04:11 38.64271 41.22967 31604 ft 463 kts 289°
2026-02-22 04:11 38.65337 41.19082 31856 ft 462 kts 289°
2026-02-22 04:11 38.66397 41.15207 32109 ft 462 kts 289°
2026-02-22 04:12 38.67455 41.11326 32353 ft 461 kts 289°
2026-02-22 04:12 38.68509 41.07459 32603 ft 460 kts 289°
2026-02-22 04:12 38.69561 41.03590 32854 ft 460 kts 289°
2026-02-22 04:12 38.70608 40.99734 33101 ft 459 kts 289°
2026-02-22 04:13 38.71654 40.95876 33351 ft 458 kts 289°
2026-02-22 04:13 38.72697 40.92030 33601 ft 457 kts 289°
2026-02-22 04:13 38.73740 40.88184 33850 ft 456 kts 289°
2026-02-22 04:13 38.74780 40.84344 34100 ft 455 kts 289°
2026-02-22 04:14 38.75812 40.80526 34348 ft 454 kts 289°
2026-02-22 04:14 38.76839 40.76700 34600 ft 453 kts 289°
2026-02-22 04:14 38.77514 40.74177 34764 ft 452 kts 289°
2026-02-22 04:15 38.80901 40.61520 35564 ft 447 kts 289°
2026-02-22 04:15 38.81914 40.57750 35761 ft 447 kts 289°
2026-02-22 04:15 38.82921 40.53994 35949 ft 446 kts 289°
2026-02-22 04:16 38.84938 40.46425 36009 ft 451 kts 289°
2026-02-22 04:16 38.86960 40.38795 36007 ft 451 kts 289°
2026-02-22 04:17 38.88979 40.31164 36008 ft 452 kts 288°
2026-02-22 04:17 38.90995 40.23508 36008 ft 453 kts 288°
2026-02-22 04:18 38.93027 40.15805 36016 ft 452 kts 288°
2026-02-22 04:18 38.95037 40.08169 36029 ft 451 kts 288°
2026-02-22 04:19 38.97035 40.00536 36032 ft 450 kts 288°
2026-02-22 04:19 38.99026 39.92916 36029 ft 449 kts 288°
2026-02-22 04:20 39.01007 39.85298 36028 ft 449 kts 288°
2026-02-22 04:20 39.02975 39.77679 36025 ft 449 kts 288°
2026-02-22 04:21 39.04949 39.70054 36018 ft 450 kts 288°
2026-02-22 04:21 39.06587 39.63707 36017 ft 450 kts 288°
2026-02-22 04:22 39.08551 39.56058 36025 ft 450 kts 288°
2026-02-22 04:22 39.10501 39.48412 36026 ft 449 kts 288°
2026-02-22 04:23 39.12446 39.40767 36024 ft 449 kts 288°
2026-02-22 04:23 39.14412 39.33076 36019 ft 449 kts 289°
2026-02-22 04:24 39.16503 39.25477 36008 ft 450 kts 290°
2026-02-22 04:24 39.18660 39.17894 36003 ft 452 kts 290°
2026-02-22 04:25 39.20785 39.10274 36017 ft 452 kts 289°
2026-02-22 04:25 39.22879 39.02627 36016 ft 452 kts 289°
2026-02-22 04:26 39.24959 38.94977 36011 ft 452 kts 289°
2026-02-22 04:26 39.27049 38.87316 36006 ft 453 kts 289°
2026-02-22 04:27 39.29148 38.79637 36004 ft 454 kts 289°
2026-02-22 04:27 39.31239 38.71930 35995 ft 456 kts 289°
2026-02-22 04:28 39.33329 38.64195 36004 ft 457 kts 289°
2026-02-22 04:28 39.35417 38.56452 36026 ft 456 kts 289°
2026-02-22 04:29 39.37494 38.48715 36029 ft 455 kts 289°
2026-02-22 04:29 39.39571 38.40989 36036 ft 454 kts 289°
2026-02-22 04:30 39.41638 38.33288 36048 ft 452 kts 289°
2026-02-22 04:30 39.43679 38.25618 36034 ft 451 kts 289°
2026-02-22 04:31 39.45711 38.17938 36022 ft 451 kts 289°
2026-02-22 04:31 39.47757 38.10207 36019 ft 452 kts 289°
2026-02-22 04:32 39.49788 38.02512 36025 ft 451 kts 289°
2026-02-22 04:32 39.51809 37.94826 36027 ft 450 kts 289°
2026-02-22 04:33 39.53825 37.87147 36024 ft 450 kts 289°
2026-02-22 04:33 39.55837 37.79463 36020 ft 451 kts 288°
2026-02-22 04:34 39.57847 37.71759 36007 ft 452 kts 288°
2026-02-22 04:34 39.59866 37.64005 35975 ft 456 kts 288°
2026-02-22 04:35 39.61896 37.56171 35979 ft 460 kts 288°
2026-02-22 04:35 39.63929 37.48287 35990 ft 462 kts 288°
2026-02-22 04:36 39.65967 37.40385 36004 ft 462 kts 288°
2026-02-22 04:36 39.68002 37.32462 36012 ft 463 kts 288°
2026-02-22 04:37 39.70026 37.24529 36020 ft 463 kts 288°
2026-02-22 04:37 39.72048 37.16591 36026 ft 463 kts 288°
2026-02-22 04:38 39.74068 37.08654 36035 ft 462 kts 288°
2026-02-22 04:38 39.76074 37.00738 36050 ft 460 kts 288°
2026-02-22 04:39 39.78079 36.92798 36034 ft 459 kts 288°
2026-02-22 04:39 39.79577 36.84764 36032 ft 458 kts 279°
2026-02-22 04:40 39.80675 36.76610 36034 ft 457 kts 280°
2026-02-22 04:40 39.81781 36.68472 36031 ft 457 kts 280°
2026-02-22 04:41 39.82884 36.60334 36027 ft 457 kts 280°
2026-02-22 04:41 39.83984 36.52194 36026 ft 457 kts 280°
2026-02-22 04:42 39.85075 36.44046 36028 ft 457 kts 279°
2026-02-22 04:42 39.86149 36.35906 36029 ft 457 kts 279°
2026-02-22 04:43 39.87291 36.27771 36028 ft 456 kts 281°
2026-02-22 04:43 39.88458 36.19652 36027 ft 456 kts 280°
2026-02-22 04:44 39.89544 36.11512 36029 ft 456 kts 279°
2026-02-22 04:44 39.90588 36.03369 36031 ft 455 kts 279°
2026-02-22 04:45 39.91632 35.95242 36033 ft 455 kts 279°
2026-02-22 04:45 39.92692 35.87125 36032 ft 454 kts 279°
2026-02-22 04:46 39.93750 35.79013 36030 ft 454 kts 279°
2026-02-22 04:46 39.94799 35.70902 36030 ft 454 kts 279°
2026-02-22 04:47 39.95832 35.62794 36027 ft 453 kts 279°
2026-02-22 04:47 39.96867 35.54632 36023 ft 454 kts 279°
2026-02-22 04:48 39.97892 35.46516 36026 ft 453 kts 279°
2026-02-22 04:48 39.98915 35.38401 36022 ft 454 kts 280°
2026-02-22 04:49 40.00765 35.30547 36014 ft 454 kts 290°
2026-02-22 04:49 40.02942 35.22807 36012 ft 455 kts 290°
2026-02-22 04:50 40.05110 35.15052 36014 ft 455 kts 290°
2026-02-22 04:50 40.07274 35.07289 36018 ft 455 kts 290°
2026-02-22 04:51 40.09432 34.99525 36024 ft 455 kts 290°
2026-02-22 04:51 40.11583 34.91757 36028 ft 454 kts 290°
2026-02-22 04:52 40.14794 34.80112 36029 ft 454 kts 290°
2026-02-22 04:53 40.16934 34.72352 36027 ft 453 kts 289°
2026-02-22 04:53 40.19064 34.64593 36023 ft 454 kts 289°
2026-02-22 04:54 40.21195 34.56821 36022 ft 454 kts 289°
2026-02-22 04:54 40.22973 34.50304 36024 ft 454 kts 289°
2026-02-22 04:55 40.25079 34.42521 36024 ft 454 kts 289°
2026-02-22 04:55 40.27198 34.34736 36021 ft 454 kts 289°
2026-02-22 04:56 40.29301 34.26944 36025 ft 454 kts 289°
2026-02-22 04:56 40.31388 34.19158 36030 ft 453 kts 289°
2026-02-22 04:57 40.33476 34.11377 36032 ft 452 kts 289°
2026-02-22 04:57 40.35559 34.03605 36031 ft 451 kts 289°
2026-02-22 04:58 40.37634 33.95846 36030 ft 451 kts 289°
2026-02-22 04:58 40.39709 33.88086 36027 ft 451 kts 289°
2026-02-22 04:59 40.41767 33.80321 36023 ft 451 kts 289°
2026-02-22 04:59 40.43838 33.72549 36021 ft 451 kts 292°
2026-02-22 05:00 40.46958 33.65367 36020 ft 450 kts 304°
2026-02-22 05:00 40.50480 33.58563 36016 ft 451 kts 304°
2026-02-22 05:01 40.54000 33.51732 36009 ft 452 kts 304°
2026-02-22 05:01 40.57514 33.44881 36008 ft 452 kts 304°
2026-02-22 05:02 40.61034 33.38014 36003 ft 453 kts 304°
2026-02-22 05:02 40.64557 33.31117 35992 ft 455 kts 303°
2026-02-22 05:03 40.68088 33.24191 35993 ft 456 kts 303°
2026-02-22 05:03 40.71622 33.17254 36010 ft 456 kts 303°
2026-02-22 05:04 40.74939 33.10142 36006 ft 456 kts 296°
2026-02-22 05:04 40.77759 33.02653 36012 ft 456 kts 296°
2026-02-22 05:05 40.80578 32.95157 36022 ft 456 kts 296°
2026-02-22 05:05 40.83396 32.87669 36024 ft 455 kts 296°
2026-02-22 05:06 40.86205 32.80175 36022 ft 455 kts 296°
2026-02-22 05:06 40.89012 32.72672 36023 ft 455 kts 296°
2026-02-22 05:07 40.91829 32.65123 36025 ft 455 kts 296°
2026-02-22 05:07 40.94620 32.57624 36029 ft 454 kts 296°
2026-02-22 05:08 40.97402 32.50125 36030 ft 454 kts 296°
2026-02-22 05:08 41.00176 32.42624 36019 ft 454 kts 296°
2026-02-22 05:09 41.03134 32.34601 36010 ft 454 kts 296°
2026-02-22 05:09 41.05898 32.27073 36022 ft 454 kts 296°
2026-02-22 05:10 41.08656 32.19554 36029 ft 453 kts 296°
2026-02-22 05:10 41.11402 32.12039 36027 ft 453 kts 296°
2026-02-22 05:11 41.13439 32.04183 36023 ft 452 kts 279°
2026-02-22 05:11 41.14109 31.95905 36027 ft 451 kts 275°
2026-02-22 05:12 41.14723 31.87633 36028 ft 450 kts 276°
2026-02-22 05:12 41.15351 31.79372 36026 ft 450 kts 276°
2026-02-22 05:13 41.15967 31.71109 36011 ft 450 kts 275°
2026-02-22 05:13 41.16267 31.66968 35908 ft 450 kts 275°
2026-02-22 05:13 41.16558 31.62895 35768 ft 447 kts 275°
2026-02-22 05:14 41.17128 31.54874 35637 ft 446 kts 275°
2026-02-22 05:14 41.17420 31.50791 35388 ft 443 kts 275°
2026-02-22 05:14 41.17709 31.46723 35163 ft 441 kts 275°
2026-02-22 05:14 41.17996 31.42677 34939 ft 439 kts 275°
2026-02-22 05:15 41.18279 31.38648 34708 ft 437 kts 275°
2026-02-22 05:15 41.18469 31.35937 34560 ft 436 kts 275°
2026-02-22 05:15 41.18842 31.30646 34262 ft 434 kts 275°
2026-02-22 05:15 41.19029 31.27961 34109 ft 432 kts 275°
2026-02-22 05:16 41.19304 31.23994 33885 ft 431 kts 275°
2026-02-22 05:16 41.19579 31.20037 33659 ft 429 kts 275°
2026-02-22 05:16 41.19850 31.16102 33434 ft 428 kts 275°
2026-02-22 05:16 41.20119 31.12175 33209 ft 426 kts 275°
2026-02-22 05:17 41.20387 31.08265 32984 ft 424 kts 275°
2026-02-22 05:17 41.20652 31.04373 32759 ft 423 kts 275°
2026-02-22 05:17 41.20911 31.00490 32533 ft 421 kts 275°
2026-02-22 05:17 41.21168 30.96618 32308 ft 420 kts 275°
2026-02-22 05:18 41.21422 30.92770 32083 ft 418 kts 275°
2026-02-22 05:18 41.21678 30.88925 31858 ft 417 kts 275°
2026-02-22 05:18 41.21929 30.85100 31632 ft 415 kts 275°
2026-02-22 05:18 41.22177 30.81287 31383 ft 413 kts 275°
2026-02-22 05:19 41.22497 30.77501 31158 ft 412 kts 281°
2026-02-22 05:19 41.23220 30.73832 30929 ft 410 kts 290°
2026-02-22 05:19 41.24281 30.70319 30707 ft 409 kts 292°
2026-02-22 05:19 41.25370 30.66835 30482 ft 408 kts 292°
2026-02-22 05:20 41.26453 30.63363 30255 ft 406 kts 292°
2026-02-22 05:20 41.27525 30.59916 30037 ft 405 kts 292°
2026-02-22 05:20 41.28592 30.56463 29806 ft 403 kts 291°
2026-02-22 05:20 41.29451 30.52925 29582 ft 402 kts 286°
2026-02-22 05:21 41.30228 30.49359 29357 ft 400 kts 286°
2026-02-22 05:21 41.31002 30.45810 29131 ft 399 kts 286°
2026-02-22 05:21 41.31775 30.42276 28906 ft 397 kts 286°
2026-02-22 05:21 41.32575 30.38768 28677 ft 396 kts 291°
2026-02-22 05:22 41.33722 30.35394 28451 ft 394 kts 292°
2026-02-22 05:22 41.34332 30.31867 28169 ft 392 kts 274°
2026-02-22 05:22 41.34409 30.28259 27791 ft 390 kts 265°
2026-02-22 05:22 41.33884 30.24745 27414 ft 387 kts 249°
2026-02-22 05:23 41.32849 30.21454 27042 ft 385 kts 246°
2026-02-22 05:23 41.31780 30.18196 26664 ft 383 kts 246°
2026-02-22 05:23 41.30444 30.15148 26278 ft 380 kts 231°
2026-02-22 05:23 41.28736 30.12481 25855 ft 379 kts 229°
2026-02-22 05:24 41.27013 30.09843 25433 ft 377 kts 229°
2026-02-22 05:24 41.25294 30.07230 25000 ft 374 kts 229°
2026-02-22 05:24 41.23582 30.04639 24575 ft 372 kts 229°
2026-02-22 05:24 41.21882 30.02070 24154 ft 369 kts 229°
2026-02-22 05:25 41.20190 29.99513 23733 ft 367 kts 229°
2026-02-22 05:25 41.18507 29.96974 23302 ft 365 kts 229°
2026-02-22 05:25 41.16841 29.94452 22877 ft 362 kts 229°
2026-02-22 05:25 41.15184 29.91941 22450 ft 360 kts 229°
2026-02-22 05:26 41.13539 29.89454 22025 ft 358 kts 229°
2026-02-22 05:26 41.11898 29.86979 21601 ft 356 kts 229°
2026-02-22 05:26 41.10267 29.84524 21163 ft 354 kts 229°
2026-02-22 05:26 41.08813 29.82339 20789 ft 352 kts 229°
2026-02-22 05:27 41.07917 29.81026 20576 ft 351 kts 227°
2026-02-22 05:27 41.06279 29.78627 20130 ft 349 kts 229°
2026-02-22 05:27 41.04679 29.76215 19707 ft 348 kts 229°
2026-02-22 05:27 41.03094 29.73798 19281 ft 346 kts 229°
2026-02-22 05:28 41.01518 29.71399 18855 ft 345 kts 229°
2026-02-22 05:28 40.99941 29.69007 18429 ft 344 kts 229°
2026-02-22 05:28 40.98366 29.66631 17991 ft 343 kts 229°
2026-02-22 05:28 40.96796 29.64271 17578 ft 342 kts 229°
2026-02-22 05:29 40.95221 29.61914 17154 ft 341 kts 229°
2026-02-22 05:29 40.93628 29.59539 16717 ft 340 kts 229°
2026-02-22 05:29 40.92063 29.57208 16355 ft 337 kts 229°
2026-02-22 05:29 40.90515 29.54900 16030 ft 334 kts 229°
2026-02-22 05:30 40.89175 29.52430 15702 ft 330 kts 244°
2026-02-22 05:30 40.88467 29.49580 15373 ft 325 kts 262°
2026-02-22 05:30 40.88429 29.46618 15026 ft 323 kts 275°
2026-02-22 05:30 40.88614 29.43733 14684 ft 320 kts 275°
2026-02-22 05:31 40.88796 29.40806 14331 ft 318 kts 275°
2026-02-22 05:31 40.88971 29.37900 13983 ft 316 kts 274°
2026-02-22 05:31 40.89077 29.36104 13758 ft 312 kts 274°
2026-02-22 05:31 40.89210 29.34689 13565 ft 301 kts 278°
2026-02-22 05:32 40.89398 29.32517 13288 ft 292 kts 275°
2026-02-22 05:32 40.89531 29.29848 12929 ft 290 kts 274°
2026-02-22 05:32 40.89660 29.27189 12578 ft 290 kts 274°
2026-02-22 05:32 40.89792 29.24537 12228 ft 289 kts 274°
2026-02-22 05:33 40.89930 29.21885 11875 ft 289 kts 274°
2026-02-22 05:33 40.90072 29.19309 11538 ft 288 kts 274°
2026-02-22 05:33 40.90225 29.16685 11233 ft 285 kts 274°
2026-02-22 05:33 40.90381 29.14086 10939 ft 282 kts 274°
2026-02-22 05:34 40.90534 29.11513 10637 ft 280 kts 274°
2026-02-22 05:34 40.90683 29.08960 10336 ft 277 kts 274°
2026-02-22 05:34 40.90828 29.06436 10035 ft 274 kts 274°
2026-02-22 05:34 40.90971 29.03936 9733 ft 271 kts 274°
2026-02-22 05:35 40.91121 29.01468 9432 ft 268 kts 277°
2026-02-22 05:35 40.91509 28.99325 9161 ft 265 kts 287°
2026-02-22 05:35 40.92047 28.97007 8858 ft 262 kts 287°
2026-02-22 05:35 40.92590 28.94722 8552 ft 259 kts 287°
2026-02-22 05:36 40.93129 28.92467 8252 ft 253 kts 287°
2026-02-22 05:36 40.93644 28.90304 7951 ft 240 kts 287°
2026-02-22 05:36 40.94131 28.88248 7649 ft 228 kts 287°
2026-02-22 05:36 40.94572 28.86369 7375 ft 226 kts 287°
2026-02-22 05:37 40.94966 28.84685 7117 ft 225 kts 287°
2026-02-22 05:37 40.95428 28.82707 6817 ft 225 kts 287°
2026-02-22 05:37 40.95889 28.80735 6518 ft 224 kts 287°
2026-02-22 05:37 40.96347 28.78763 6213 ft 224 kts 287°
2026-02-22 05:38 40.96804 28.76796 5919 ft 223 kts 287°
2026-02-22 05:38 40.97491 28.74950 5632 ft 221 kts 310°
2026-02-22 05:38 40.98684 28.73713 5392 ft 217 kts 336°
2026-02-22 05:38 41.00130 28.73273 5195 ft 212 kts 359°
2026-02-22 05:39 41.01591 28.73254 4954 ft 209 kts 359°
2026-02-22 05:39 41.03043 28.73228 4707 ft 208 kts 359°
2026-02-22 05:39 41.04464 28.73201 4501 ft 201 kts 359°
2026-02-22 05:39 41.05820 28.73174 4261 ft 188 kts 358°
2026-02-22 05:40 41.07084 28.73150 4061 ft 176 kts 358°
2026-02-22 05:40 41.08267 28.73127 3848 ft 165 kts 358°
2026-02-22 05:40 41.09372 28.73105 3662 ft 155 kts 358°
2026-02-22 05:40 41.10444 28.73084 3440 ft 153 kts 358°
2026-02-22 05:41 41.11508 28.73063 3208 ft 152 kts 358°
2026-02-22 05:41 41.12566 28.73042 2987 ft 152 kts 358°
2026-02-22 05:41 41.13623 28.73021 2742 ft 152 kts 358°
2026-02-22 05:41 41.14676 28.73000 2494 ft 151 kts 358°
2026-02-22 05:42 41.15725 28.72979 2242 ft 150 kts 358°
2026-02-22 05:42 41.17809 28.72939 1738 ft 149 kts 358°
2026-02-22 05:42 41.18845 28.72918 1482 ft 149 kts 358°
2026-02-22 05:43 41.19877 28.72898 1250 ft 148 kts 358°
2026-02-22 05:43 41.20827 28.72880 1047 ft 147 kts 358°
2026-02-22 05:43 41.21734 28.72862 928 ft 147 kts 358°
2026-02-22 05:43 41.22757 28.72842 802 ft 147 kts 358°
2026-02-22 05:44 41.23777 28.72822 677 ft 147 kts 358°
2026-02-22 05:44 41.24798 28.72802 522 ft 147 kts 359°
2026-02-22 05:44 41.25811 28.72783 398 ft 145 kts 359°
2026-02-22 05:44 41.26812 28.72762 336 ft 135 kts 359°
2026-02-22 05:45 41.27268 28.72749 330 ft 23 kts 359°
2026-02-22 05:45 41.27430 28.72745 330 ft 24 kts 359°
2026-02-22 05:45 41.27515 28.72820 332 ft 8 kts 103°
2026-02-22 05:45 41.27487 28.72848 334 ft 6 kts 146°
2026-02-22 05:46 41.27437 28.72894 334 ft 11 kts 146°
2026-02-22 05:46 41.27361 28.72963 330 ft 16 kts 146°
2026-02-22 05:46 41.27247 28.72983 333 ft 19 kts 181°
2026-02-22 05:46 41.27104 28.72985 334 ft 21 kts 166°
2026-02-22 05:47 41.27051 28.73136 334 ft 20 kts 88°
2026-02-22 05:47 41.27086 28.73296 330 ft 18 kts 41°
2026-02-22 05:47 41.27164 28.73353 333 ft 10 kts 14°
2026-02-22 05:47 41.27203 28.73355 334 ft 8 kts
2026-02-22 05:48 41.27229 28.73355 330 ft 0 kts 359°